BEIDOU-2 G3

Last updated on Mon Jul 07 2025 00:02:43 GMT+0000 (Coordinated Universal Time)

1 36590U 10024A 25187.64320462 -.00000122 00000+0 00000+0 0 9994 2 36590 3.6962 62.4370 0007868 354.0767 179.5369 1.00272421 55306
UTC large
Height (km)
Speed (km/s)
/
Latitude / Longitude
Inclination (degrees)
Orbital Period (minutes)
Azimuth
Elevation
Range (km)
Doppler Factor

Next 0 passes for location: London (51.5072 / 0.1276)

Sorry there are no passes over London.